Date String (YYYY-MM-DD hh:mm:ss) UTC,Instrument flags,absolute air pressure of the measurement (hPa),sample flow rate (lpm),inlet stack bypass flow (lpm),air temperature of the measurement (°C),ambient temperature measured by the external sensor (°C),aerosol sample conditioner tube jacket temperature (°C),OPC LED temperature (°C),internal box temperature (°C),relative humidity of the measurement (%),span deviation,mass concentration of particles derived from Lorenz-Mie calculation of OPC scattering (μg/m³),mass concentration of particles derived from Lorenz-Mie calculation of OPC scattering (μg/m³),mass concentration of particles derived from Lorenz-Mie calculation of OPC scattering (μg/m³)
DateTimeUTC,F1_M11,P_M11,Q1_M11,Q2_M11,T1_M11,T2_M11,T3_M11,T4_M11,T5_M11,U1_M11,ZSPAN_M11,X0_M11,X2_M11,X1_M11
2024-05-04 14:00:00,SystemResetWarning,0833.1,5.00,000.00,021.5,021.0,000.0,029.9,023.3,020.1,0000.0,0004.16,0001.78,0001.25
2024-05-04 14:01:00,SystemResetWarning,0833.1,5.00,000.00,021.6,021.0,000.0,029.9,023.3,020.3,0000.0,0003.53,0001.81,0001.27
2024-05-04 14:02:00,SystemResetWarning,0833.1,5.00,000.00,021.6,021.0,000.0,030.0,023.3,020.4,0000.0,0003.57,0001.81,0001.29
2024-05-04 14:03:00,SystemResetWarning,0833.2,5.00,000.00,021.5,021.0,000.0,030.0,023.4,020.3,0000.0,0003.39,0001.77,0001.30
2024-05-04 14:04:00,SystemResetWarning,0833.2,5.00,000.00,021.6,021.0,000.0,030.0,023.3,020.2,0000.0,0003.11,0001.75,0001.30
2024-05-04 14:05:00,SystemResetWarning,0833.2,5.00,000.00,021.5,021.0,000.0,030.0,023.3,020.2,0000.0,0002.86,0001.72,0001.31
2024-05-04 14:06:00,SystemResetWarning,0833.2,5.00,000.00,021.5,021.0,000.0,030.0,023.3,020.2,0000.0,0002.90,0001.74,0001.32
2024-05-04 14:07:00,SystemResetWarning,0833.2,4.99,000.00,021.5,021.0,000.0,030.0,023.3,020.3,0000.0,0002.88,0001.72,0001.32
2024-05-04 14:08:00,SystemResetWarning,0833.2,4.99,000.00,021.5,021.0,000.0,030.0,023.3,020.3,0000.0,0002.94,0001.73,0001.32
2024-05-04 14:09:00,SystemResetWarning,0833.2,4.99,000.00,021.5,021.0,000.0,030.0,023.3,020.3,0000.0,0003.49,0001.75,0001.32
2024-05-04 14:10:00,SystemResetWarning,0833.2,5.00,000.00,021.5,021.0,000.0,030.0,023.3,020.0,0000.0,0004.14,0001.72,0001.33
2024-05-04 14:11:00,SystemResetWarning,0833.1,5.00,000.00,021.5,021.0,000.0,030.0,023.3,020.0,0000.0,0004.51,0001.73,0001.33
2024-05-04 14:12:00,SystemResetWarning,0833.1,4.99,000.00,021.5,021.0,000.0,030.0,023.3,020.0,0000.0,0004.53,0001.70,0001.33
2024-05-04 14:13:00,SystemResetWarning,0833.1,5.00,000.00,021.5,021.0,000.0,030.0,023.3,020.0,0000.0,0004.38,0001.67,0001.33
2024-05-04 14:14:00,SystemResetWarning,0833.0,5.01,000.00,021.5,021.0,000.0,030.0,023.3,019.8,0000.0,0004.37,0001.67,0001.33
2024-05-04 14:15:00,SystemResetWarning,0833.3,5.00,000.00,021.5,021.0,000.0,030.0,023.3,019.8,0000.0,0004.41,0001.70,0001.34
2024-05-04 14:16:00,SystemResetWarning,0833.2,5.00,000.00,021.5,021.0,000.0,030.0,023.3,020.0,0000.0,0005.14,0001.70,0001.35
2024-05-04 14:17:00,SystemResetWarning,0833.1,5.00,000.00,021.5,021.0,000.0,030.0,023.3,019.9,0000.0,0005.19,0001.69,0001.36
2024-05-04 14:18:00,SystemResetWarning,0833.2,4.99,000.00,021.5,021.0,000.0,030.0,023.3,020.1,0000.0,0006.42,0001.68,0001.37
2024-05-04 14:19:00,SystemResetWarning,0833.0,5.00,000.00,021.5,021.0,000.0,030.0,023.3,020.0,0000.0,0006.40,0001.71,0001.38
2024-05-04 14:20:00,SystemResetWarning,0833.1,4.99,000.00,021.5,021.0,000.0,030.0,023.3,020.0,0000.0,0006.06,0001.72,0001.39
2024-05-04 14:21:00,SystemResetWarning,0833.1,4.99,000.00,021.6,021.0,000.0,030.0,023.3,020.3,0000.0,0005.19,0001.75,0001.42
2024-05-04 14:22:00,SystemResetWarning,0833.1,5.00,000.00,021.5,021.0,000.0,030.0,023.3,020.4,0000.0,0004.76,0001.77,0001.43
2024-05-04 14:23:00,SystemResetWarning,0833.2,5.00,000.00,021.5,021.0,000.0,030.0,023.4,020.3,0000.0,0004.85,0001.80,0001.44
2024-05-04 14:24:00,SystemResetWarning,0833.1,5.00,000.00,021.6,021.0,000.0,030.0,023.3,020.3,0000.0,0004.95,0001.86,0001.46
2024-05-04 14:25:00,SystemResetWarning,0833.1,5.00,000.00,021.5,021.0,000.0,030.0,023.3,020.0,0000.0,0005.02,0001.89,0001.48
2024-05-04 14:26:00,SystemResetWarning,0833.1,5.00,000.00,021.6,021.0,000.0,030.0,023.3,020.0,0000.0,0005.10,0001.89,0001.49
2024-05-04 14:27:00,SystemResetWarning,0833.0,5.00,000.00,021.6,021.0,000.0,030.0,023.3,019.7,0000.0,0004.51,0001.92,0001.50
2024-05-04 14:28:00,SystemResetWarning,0833.1,5.01,000.00,021.6,021.0,000.0,030.0,023.3,019.6,0000.0,0004.54,0001.96,0001.51
2024-05-04 14:29:00,SystemResetWarning,0833.1,5.00,000.00,021.6,021.0,000.0,030.0,023.4,019.5,0000.0,0003.31,0002.00,0001.52
2024-05-04 14:30:00,SystemResetWarning,0833.1,4.99,000.00,021.6,021.0,000.0,030.0,023.4,019.5,0000.0,0003.33,0002.01,0001.53
2024-05-04 14:31:00,SystemResetWarning,0833.3,4.99,000.00,021.6,021.0,000.0,030.0,023.4,019.6,0000.0,0003.29,0002.00,0001.54
2024-05-04 14:32:00,SystemResetWarning,0833.0,5.01,000.00,021.6,021.0,000.0,030.0,023.4,019.5,0000.0,0003.27,0002.00,0001.54
2024-05-04 14:33:00,SystemResetWarning,0833.0,5.01,000.00,021.6,021.0,000.0,030.0,023.4,019.5,0000.0,0003.27,0002.00,0001.54
2024-05-04 14:34:00,SystemResetWarning,0833.3,4.99,000.00,021.6,021.0,000.0,030.0,023.3,019.5,0000.0,0003.18,0002.00,0001.55
2024-05-04 14:35:00,SystemResetWarning,0833.0,4.99,000.00,021.6,021.0,000.0,030.0,023.3,019.7,0000.0,0003.10,0001.99,0001.56
2024-05-04 14:36:00,SystemResetWarning,0833.1,5.01,000.00,021.6,021.0,000.0,030.0,023.4,019.8,0000.0,0003.23,0001.99,0001.56
2024-05-04 14:37:00,SystemResetWarning,0833.2,5.01,000.00,021.6,021.0,000.0,030.0,023.4,019.6,0000.0,0004.57,0002.01,0001.56
2024-05-04 14:38:00,SystemResetWarning,0833.1,4.99,000.00,021.6,021.0,000.0,030.0,023.4,019.6,0000.0,0005.17,0002.04,0001.57
2024-05-04 14:39:00,SystemResetWarning,0833.1,5.00,000.00,021.6,021.0,000.0,030.0,023.4,019.5,0000.0,0005.28,0002.05,0001.58
2024-05-04 14:40:00,SystemResetWarning,0833.1,5.00,000.00,021.6,021.0,000.0,030.0,023.4,019.6,0000.0,0005.30,0002.03,0001.59
2024-05-04 14:41:00,SystemResetWarning,0833.1,4.99,000.00,021.6,021.0,000.0,030.0,023.3,019.9,0000.0,0005.42,0002.04,0001.59
2024-05-04 14:42:00,SystemResetWarning,0833.1,5.00,000.00,021.6,021.0,000.0,030.0,023.3,020.0,0000.0,0005.49,0002.08,0001.59
2024-05-04 14:43:00,SystemResetWarning,0833.1,5.00,000.00,021.6,021.0,000.0,030.0,023.4,020.0,0000.0,0006.02,0002.15,0001.59
2024-05-04 14:44:00,SystemResetWarning,0833.1,5.01,000.00,021.6,021.0,000.0,030.0,023.4,019.7,0000.0,0006.30,0002.18,0001.59
2024-05-04 14:45:00,SystemResetWarning,0833.2,5.01,000.00,021.6,021.0,000.0,030.0,023.4,019.7,0000.0,0007.01,0002.22,0001.60
2024-05-04 14:46:00,SystemResetWarning,0833.4,5.00,000.00,021.6,021.0,000.0,030.0,023.3,019.7,0000.0,0007.39,0002.25,0001.61
2024-05-04 14:47:00,SystemResetWarning,0833.3,4.99,000.00,021.6,021.0,000.0,030.0,023.3,019.6,0000.0,0007.83,0002.26,0001.63
2024-05-04 14:48:00,SystemResetWarning,0833.4,4.99,000.00,021.6,021.0,000.0,030.0,023.3,019.8,0000.0,0006.98,0002.27,0001.64
2024-05-04 14:49:00,SystemResetWarning,0833.1,5.00,000.00,021.6,021.0,000.0,030.0,023.3,019.9,0000.0,0006.58,0002.22,0001.64
2024-05-04 14:50:00,SystemResetWarning,0833.0,5.01,000.00,021.6,021.0,000.0,030.0,023.4,019.8,0000.0,0007.36,0002.18,0001.64
2024-05-04 14:51:00,SystemResetWarning,0833.0,5.01,000.00,021.6,021.1,000.0,030.0,023.4,019.7,0000.0,0007.31,0002.18,0001.64
2024-05-04 14:52:00,SystemResetWarning,0833.0,5.00,000.00,021.6,021.1,000.0,030.0,023.4,019.7,0000.0,0007.27,0002.17,0001.65
2024-05-04 14:53:00,SystemResetWarning,0833.0,4.99,000.00,021.6,021.1,000.0,030.0,023.4,019.7,0000.0,0007.38,0002.20,0001.65
2024-05-04 14:54:00,SystemResetWarning,0833.0,4.99,000.00,021.7,021.1,000.0,030.0,023.4,019.8,0000.0,0006.94,0002.14,0001.66
2024-05-04 14:55:00,SystemResetWarning,0833.1,4.99,000.00,021.7,021.1,000.0,030.0,023.4,019.8,0000.0,0006.68,0002.13,0001.67
2024-05-04 14:56:00,SystemResetWarning,0833.0,5.00,000.00,021.7,021.1,000.0,030.0,023.4,019.8,0000.0,0006.03,0002.12,0001.67
2024-05-04 14:57:00,SystemResetWarning,0833.0,5.00,000.00,021.7,021.1,000.0,030.0,023.5,019.8,0000.0,0006.23,0002.13,0001.66
2024-05-04 14:58:00,SystemResetWarning,0833.2,5.00,000.00,021.7,021.1,000.0,030.0,023.4,019.8,0000.0,0005.62,0002.16,0001.66
2024-05-04 14:59:00,SystemResetWarning,0833.3,5.00,000.00,021.7,021.1,000.0,030.0,023.4,020.2,0000.0,0006.90,0002.17,0001.66
